Weather History for Shawano, WI

Change the Weather History Date:

Sunday, March 11, 2012

  Actual Average (KGRB) Record (KGRB)
Temperature  
Mean Temperature 56 °F 29 °F  
Max Temperature 69 °F 37 °F 63 °F (2012)
Min Temperature 42 °F 21 °F -12 °F (1948)
Degree Days  
Heating Degree Days 10 36  
Month to date heating degree days 421  
Since 1 July heating degree days 6261  
Cooling Degree Days 0 0  
Month to date cooling degree days 0  
Year to date cooling degree days 0  
Growing Degree Days 6 (Base 50)    
Moisture  
Dew Point 30 °F    
Average Humidity 42    
Maximum Humidity 65    
Minimum Humidity 18    
Precipitation  
Precipitation 0.00 in 0.05 in 1.21 in (1902)
Month to date precipitation 0.62  
Year to date precipitation 2.86  
Snow  
Snow 0.00 in 0.30 in 5.10 in (1941)
Month to date snowfall 3.7  
Since 1 July snowfall 43.9  
Snow Depth -    
Sea Level Pressure  
Sea Level Pressure 30.06 in    
Wind  
Wind Speed 6 mph (SW)    
Max Wind Speed 15 mph    
Max Gust Speed 24 mph    
Visibility 10 miles    
Events      
T = Trace of Precipitation, MM = Missing Value Source: NWS Daily Summary

Daily Weather History Graph

Daily Weather History Graph

Search for Another Location

Airport:

Trip Planner

Search our weather history database for the weather conditions in past years. The results will help you decide how hot, cold, wet, or windy it might be!

Date:

Astronomy

Mar. 11, 2012 Rise Set
Actual Time 7:13 AM CDT 6:55 PM CDT
Civil Twilight 6:43 AM CDT 7:24 PM CDT
Nautical Twilight 6:10 AM CDT 7:58 PM CDT
Astronomical Twilight 5:35 AM CDT 8:33 PM CDT
Moon 11:34 PM CDT (3/11) 8:36 AM CDT (3/11)
Length of Visible Light 12h 40m
Length of Day
11h 42m
Waning Gibbous, 85% of the Moon is Illuminated
Mar 11
Waning Gibbous
Mar 14
Last Quarter
Mar 22
New
Mar 30
First Quarter
Apr 6
Full

Hourly Weather History & Observations

Time (CDT) Temp. Windchill Dew Point Humidity Pressure Visibility Wind Dir Wind Speed Gust Speed Precip Events Conditions
12:15 AM 46.9 °F - 29.3 °F 50% 30.03 in 10.0 mi SW 4.6 mph - N/A   Clear
12:35 AM 46.9 °F - 29.3 °F 50% 30.03 in 10.0 mi SSW 3.5 mph - N/A   Clear
12:55 AM 46.6 °F - 29.3 °F 51% 30.03 in 10.0 mi SSW 4.6 mph - N/A   Clear
1:15 AM 46.6 °F - 29.3 °F 51% 30.04 in 10.0 mi SW 4.6 mph - N/A   Clear
1:35 AM 46.6 °F - 29.3 °F 51% 30.04 in 10.0 mi SW 5.8 mph - N/A   Clear
1:55 AM 46.4 °F 44.3 °F 29.3 °F 51% 30.04 in 10.0 mi SW 4.6 mph - N/A   Clear
3:15 AM 46.2 °F 45.0 °F 29.3 °F 52% 30.05 in 10.0 mi SSW 3.5 mph - N/A   Clear
3:35 AM 45.7 °F 43.4 °F 29.7 °F 54% 30.04 in 10.0 mi SSW 4.6 mph - N/A   Clear
3:55 AM 45.3 °F 43.0 °F 29.8 °F 55% 30.04 in 10.0 mi SW 4.6 mph - N/A   Clear
4:15 AM 45.3 °F 44.0 °F 30.0 °F 55% 30.04 in 10.0 mi SW 3.5 mph - N/A   Clear
4:35 AM 45.1 °F 43.7 °F 30.0 °F 55% 30.04 in 10.0 mi SW 3.5 mph - N/A   Clear
4:55 AM 44.8 °F - 30.2 °F 57% 30.04 in 10.0 mi Calm Calm - N/A   Clear
5:15 AM 44.4 °F - 30.2 °F 57% 30.04 in 10.0 mi Calm Calm - N/A   Clear
5:35 AM 43.7 °F - 30.2 °F 59% 30.05 in 10.0 mi Calm Calm - N/A   Clear
5:55 AM 43.3 °F - 30.2 °F 60% 30.05 in 10.0 mi Calm Calm - N/A   Clear
6:15 AM 43.0 °F - 30.2 °F 61% 30.06 in 10.0 mi Calm Calm - N/A   Clear
6:35 AM 42.6 °F 40.9 °F 30.6 °F 62% 30.07 in 10.0 mi SSW 3.5 mph - N/A   Clear
6:55 AM 42.4 °F 40.7 °F 30.6 °F 63% 30.08 in 10.0 mi SW 3.5 mph - N/A   Clear
7:15 AM 42.3 °F - 30.7 °F 64% 30.08 in 10.0 mi Calm Calm - N/A   Clear
7:35 AM 42.1 °F - 30.9 °F 65% 30.08 in 10.0 mi Calm Calm - N/A   Clear
7:55 AM 42.4 °F 39.6 °F 31.1 °F 64% 30.09 in 10.0 mi SW 4.6 mph - N/A   Clear
8:15 AM 43.3 °F 41.7 °F 31.3 °F 62% 30.09 in 10.0 mi SW 3.5 mph - N/A   Clear
8:35 AM 45.0 °F 41.8 °F 31.8 °F 60% 30.09 in 10.0 mi SW 5.8 mph - N/A   Clear
8:55 AM 46.8 °F - 32.0 °F 57% 30.10 in 10.0 mi SW 8.1 mph - N/A   Clear
9:15 AM 48.7 °F - 32.0 °F 52% 30.10 in 10.0 mi SW 8.1 mph - N/A   Clear
9:35 AM 50.2 °F - 32.2 °F 50% 30.10 in 10.0 mi SW 5.8 mph - N/A   Clear
9:55 AM 52.0 °F - 32.4 °F 47% 30.10 in 10.0 mi SW 8.1 mph - N/A   Clear
10:15 AM 53.6 °F - 32.4 °F 44% 30.10 in 10.0 mi SW 9.2 mph - N/A   Clear
10:35 AM 55.0 °F - 32.2 °F 42% 30.10 in 10.0 mi SW 10.4 mph 17.3 mph N/A   Clear
10:55 AM 56.1 °F - 32.5 °F 41% 30.11 in 10.0 mi WSW 10.4 mph 18.4 mph N/A   Clear
11:15 AM 57.7 °F - 32.7 °F 39% 30.11 in 10.0 mi SW 10.4 mph 18.4 mph N/A   Clear
11:35 AM 59.4 °F - 32.2 °F 36% 30.10 in 10.0 mi SW 10.4 mph 16.1 mph N/A   Clear
11:55 AM 61.7 °F - 32.4 °F 33% 30.10 in 10.0 mi WSW 15.0 mph 21.9 mph N/A   Clear
12:15 PM 63.5 °F - 30.9 °F 29% 30.10 in 10.0 mi SW 12.7 mph 20.7 mph N/A   Clear
12:35 PM 64.4 °F - 30.6 °F 28% 30.09 in 10.0 mi SW 15.0 mph 19.6 mph N/A   Clear
12:55 PM 64.9 °F - 30.0 °F 27% 30.09 in 10.0 mi WSW 12.7 mph 19.6 mph N/A   Clear
1:15 PM 65.7 °F - 29.5 °F 26% 30.08 in 10.0 mi WSW 11.5 mph 24.2 mph N/A   Clear
1:35 PM 66.4 °F - 29.8 °F 25% 30.08 in 10.0 mi SW 11.5 mph 16.1 mph N/A   Clear
1:55 PM 67.1 °F - 28.9 °F 24% 30.07 in 10.0 mi SW 12.7 mph 16.1 mph N/A   Clear
2:15 PM 67.6 °F - 29.7 °F 24% 30.06 in 10.0 mi SW 10.4 mph 20.7 mph N/A   Clear
2:35 PM 67.8 °F - 28.2 °F 23% 30.05 in 10.0 mi SW 9.2 mph 17.3 mph N/A   Clear
2:55 PM 68.0 °F - 26.1 °F 21% 30.05 in 10.0 mi SW 12.7 mph 19.6 mph N/A   Clear
3:35 PM 68.7 °F - 25.9 °F 20% 30.03 in 10.0 mi SSW 8.1 mph - N/A   Clear
3:55 PM 68.9 °F - 24.6 °F 19% 30.03 in 10.0 mi SSW 8.1 mph - N/A   Clear
4:15 PM 68.9 °F - 23.5 °F 18% 30.03 in 10.0 mi SSW 9.2 mph - N/A   Clear
4:35 PM 69.3 °F - 24.6 °F 19% 30.02 in 10.0 mi SSW 5.8 mph - N/A   Clear
4:55 PM 68.5 °F - 23.2 °F 18% 30.01 in 10.0 mi SSW 9.2 mph - N/A   Clear
5:15 PM 68.4 °F - 24.1 °F 19% 30.01 in 10.0 mi South 8.1 mph - N/A   Clear
5:35 PM 67.3 °F - 27.3 °F 22% 30.01 in 10.0 mi South 4.6 mph - N/A   Clear
5:55 PM 64.9 °F - 26.2 °F 23% 30.00 in 10.0 mi South 6.9 mph - N/A   Clear
6:15 PM 63.5 °F - 28.2 °F 26% 30.00 in 10.0 mi South 9.2 mph - N/A   Clear
6:35 PM 62.2 °F - 31.8 °F 32% 30.01 in 10.0 mi South 6.9 mph - N/A   Clear
6:55 PM 61.7 °F - 31.8 °F 33% 30.03 in 10.0 mi South 3.5 mph - N/A   Clear
7:15 PM 60.8 °F - 31.6 °F 33% 30.03 in 10.0 mi South 3.5 mph - N/A   Clear
7:35 PM 60.1 °F - 31.8 °F 34% 30.04 in 10.0 mi South 4.6 mph - N/A   Clear
7:55 PM 59.2 °F - 32.0 °F 36% 30.03 in 10.0 mi South 3.5 mph - N/A   Clear
8:15 PM 57.9 °F - 32.0 °F 37% 30.03 in 10.0 mi South 3.5 mph - N/A   Clear
8:35 PM 57.6 °F - 32.0 °F 38% 30.03 in 10.0 mi South 3.5 mph - N/A   Clear
9:15 PM 56.3 °F - 31.3 °F 39% 30.03 in 10.0 mi Calm Calm - N/A   Clear
9:35 PM 55.2 °F - 31.1 °F 40% 30.03 in 10.0 mi South 5.8 mph - N/A   Clear
9:55 PM 54.9 °F - 30.9 °F 40% 30.02 in 10.0 mi South 5.8 mph - N/A   Clear
10:15 PM 54.7 °F - 30.7 °F 40% 30.02 in 10.0 mi South 3.5 mph - N/A   Clear
10:35 PM 53.8 °F - 30.7 °F 41% 30.01 in 10.0 mi SSE 4.6 mph - N/A   Clear
10:55 PM 52.3 °F - 30.9 °F 44% 30.01 in 10.0 mi SSE 4.6 mph - N/A   Clear
11:15 PM 51.8 °F - 31.5 °F 46% 30.00 in 10.0 mi SSE 5.8 mph - N/A   Clear
11:35 PM 51.8 °F - 32.0 °F 47% 29.99 in 10.0 mi SE 5.8 mph - N/A   Clear
12:35 AM 52.0 °F - 32.0 °F 47% 29.96 in 10.0 mi SE 6.9 mph - N/A   Mostly Cloudy
12:55 AM 52.0 °F - 32.2 °F 47% 29.95 in 10.0 mi South 8.1 mph - N/A Rain Light Rain